Temperature
22 22 21 21 21 20 20 19 19 18 17 17 17 16 16 16 16 15 15 15 14 14 14 14 14 14 14 14 14 14 14 15 15 15 15 15 16 16 16 16 16 16 16
22 22 21 21 21 20 20 19 19 18 17 17 17 16 16 16 16 15 15 15 14 14 14 14 14 14 14 14 14 14 14 14 15 15 15 15 15 15 16 16 16 16 16
23 22 21 21 20 20 20 19 19 18 17 17 16 16 16 16 16 15 15 15 14 14 14 14 14 14 14 14 14 14 14 14 14 15 15 15 15 15 15 16 16 16 15
23 22 21 21 20 20 19 19 19 18 17 17 17 16 16 16 16 15 15 15 15 14 14 14 14 14 14 14 14 14 14 14 14 14 15 15 15 15 15 15 15 15 15
23 22 21 21 20 20 19 19 18 18 17 17 17 16 16 16 16 15 15 15 15 15 14 14 14 14 14 14 14 14 14 14 14 14 14 15 15 15 15 15 15 15 15
23 22 21 21 20 20 19 19 18 18 17 17 17 17 16 16 16 15 15 15 15 15 15 14 14 14 14 14 14 14 14 14 14 14 14 14 15 15 15 15 15 15 15
22 22 21 21 20 20 19 19 18 18 17 17 17 17 16 16 16 16 15 15 15 15 15 14 14 14 14 14 14 14 14 14 14 14 14 14 14 15 15 15 15 15 15
22 21 21 20 20 19 19 19 18 18 18 17 17 17 17 16 16 16 16 15 15 15 15 15 14 14 14 14 14 14 14 14 14 14 14 14 14 14 14 14 14 14 15
22 21 21 20 20 19 19 19 18 18 18 17 17 17 17 16 16 16 16 16 15 15 15 15 14 14 14 14 14 14 14 14 14 14 14 14 14 14 14 14 14 14 14
22 21 21 20 20 19 19 19 18 18 18 17 17 17 17 16 16 16 16 16 15 15 15 15 15 14 14 14 14 14 14 14 14 14 14 14 14 14 14 14 14 14 14
21 21 20 20 20 19 19 18 18 18 18 17 17 17 17 16 16 16 16 16 15 15 15 15 15 15 15 14 14 14 14 14 14 14 14 14 14 14 14 14 14 14 14
21 21 20 20 19 19 19 18 18 18 18 17 17 17 17 16 16 16 16 16 16 15 15 15 15 15 15 15 14 14 14 14 14 14 14 14 14 14 14 14 14 14 14
21 20 20 19 19 19 19 19 18 18 17 17 17 17 17 16 16 16 16 16 16 16 15 15 15 15 15 15 15 14 14 14 14 14 14 14 14 14 14 14 14 14 14
20 20 20 19 19 19 19 18 18 18 17 17 17 17 16 16 16 16 16 16 16 16 15 15 15 15 15 15 15 15 14 14 14 14 14 14 14 14 14 14 14 14 13
20 20 19 19 19 18 18 18 18 18 17 17 17 16 16 16 16 16 16 15 15 15 15 15 15 15 15 15 15 15 14 14 14 14 14 14 14 14 14 14 14 14 13
19 19 19 19 19 18 18 18 18 18 17 17 17 16 16 16 16 16 15 15 15 15 15 15 15 15 15 15 15 15 15 14 14 14 14 14 14 14 14 14 14 13 13
19 19 18 18 18 18 18 18 18 17 17 17 17 16 16 16 16 15 15 15 15 15 15 15 15 15 15 15 15 14 14 14 14 14 14 14 14 14 14 14 14 14 13
18 18 18 18 18 18 18 18 17 17 17 17 16 16 16 16 15 15 15 15 15 15 14 14 14 14 15 15 15 14 14 14 14 14 14 14 14 14 14 14 14 14 13
18 17 17 17 17 17 17 17 17 17 16 16 16 16 16 15 15 15 15 15 15 14 14 14 14 14 14 14 14 14 14 14 14 14 14 14 14 14 14 13 13 13 13
17 17 17 17 17 17 16 16 16 16 16 16 15 15 15 15 15 15 15 15 14 14 14 14 14 14 14 14 14 14 14 14 14 14 14 14 14 13 13 13 13 13 13
17 16 16 16 16 16 16 16 15 15 15 15 15 15 15 15 15 14 14 14 14 14 14 14 14 14 14 14 14 14 14 13 13 13 13 13 14 13 13 13 13 13 13
16 16 15 15 15 15 15 15 15 15 14 14 14 14 14 14 14 14 14 14 14 13 13 13 13 14 14 14 14 14 13 13 13 13 13 13 13 13 13 13 13 13 12
15 15 15 15 15 14 14 14 14 14 14 14 14 14 14 14 14 14 13 13 13 13 13 13 13 13 13 13 13 13 13 13 13 13 13 13 13 13 13 13 12 12 12
15 15 14 14 14 14 14 14 13 13 13 13 13 13 13 13 13 13 13 13 13 13 13 13 13 13 13 13 13 13 13 13 12 12 12 12 12 12 12 12 12 12 12
14 14 14 14 13 13 13 13 13 13 13 12 13 13 12 12 12 12 12 12 12 12 12 12 12 12 12 12 12 12 12 12 12 12 12 12 12 12 12 12 12 12 12
13 13 13 13 13 13 13 12 12 12 12 12 12 12 12 12 12 12 12 12 12 12 12 12 12 12 12 12 12 12 12 12 11 11 11 11 11 11 11 11 11 11 11
Wind_Speed
9 9 7 6 6 5 5 6 6 5 5 3 2 2 2 1 2 2 4 3 5 6 4 3 3 3 3 3 4 3 4 3 2 2 3 2 0 1 1 1 1 1 3
9 9 8 7 6 6 5 6 6 6 5 3 2 2 1 1 2 2 2 4 5 5 5 4 3 3 2 3 4 3 2 3 2 1 1 1 2 2 1 2 1 0 1
9 9 8 7 6 6 5 5 5 7 6 4 2 2 2 1 1 0 1 1 2 2 3 4 4 4 2 2 3 2 2 2 3 1 1 0 0 1 1 1 2 1 1
9 8 7 7 7 6 6 5 5 6 6 4 3 2 1 0 0 0 1 1 1 1 1 2 3 4 3 2 3 2 2 2 2 2 1 1 1 1 1 2 1 1 1
8 9 7 6 7 7 6 5 5 5 5 4 4 2 0 0 1 1 1 1 0 0 0 1 2 3 2 2 2 2 2 1 1 2 2 2 1 1 1 1 1 1 1
8 8 7 6 6 6 6 5 5 5 4 3 4 4 2 1 0 1 1 2 1 1 0 0 1 2 2 2 2 2 2 1 1 1 1 1 1 1 0 1 1 0 0
7 7 7 6 6 7 6 5 5 4 4 3 3 3 3 2 2 1 1 2 1 0 0 1 1 1 2 2 2 2 2 1 1 1 1 1 1 1 1 0 1 0 0
7 6 6 6 6 6 6 5 5 4 4 3 2 2 3 2 1 1 1 2 1 0 0 0 1 1 1 2 2 2 3 2 1 1 1 1 1 1 0 1 1 0 1
7 6 6 6 5 6 5 5 4 4 4 4 3 2 1 1 0 2 2 1 1 1 1 1 0 1 1 1 1 1 2 2 2 2 2 1 1 1 1 0 1 2 0
6 6 6 5 5 5 5 4 4 4 4 3 3 2 2 2 1 2 2 2 2 1 1 2 1 1 1 1 1 1 1 1 1 1 2 2 2 1 0 1 1 1 2
5 5 4 4 4 5 5 4 4 3 3 4 3 3 3 2 2 3 2 2 2 2 2 2 2 1 1 1 0 1 1 2 2 2 1 2 2 1 1 1 1 1 1
6 5 5 5 4 3 3 4 3 3 3 2 2 2 2 2 2 2 2 3 3 2 2 2 2 2 2 1 1 2 2 2 2 2 1 1 1 1 1 1 1 1 2
6 6 5 4 3 3 2 2 2 2 3 3 2 1 1 2 2 2 2 3 3 3 3 2 2 2 2 1 2 2 2 2 2 1 1 2 1 1 1 1 1 1 1
5 6 5 4 3 2 1 1 1 1 1 2 2 1 1 1 1 2 2 3 3 3 2 2 2 2 2 2 2 2 3 2 2 1 1 1 1 1 1 1 1 1 1
6 5 4 3 3 1 1 1 1 1 1 2 1 2 2 1 1 2 2 3 3 4 3 3 3 2 2 2 2 3 4 3 2 1 1 1 2 2 1 0 0 0 1
5 5 4 3 2 2 1 1 0 0 1 2 2 2 1 1 1 2 3 3 2 3 4 4 3 3 2 1 1 2 4 4 3 2 2 2 2 3 2 1 1 1 1
5 5 4 4 3 3 2 1 1 0 0 1 1 1 1 1 2 2 3 3 3 4 5 5 4 3 3 4 3 4 3 5 4 3 2 2 1 2 3 3 4 2 2
5 5 5 5 5 5 4 3 2 2 2 1 1 0 1 2 2 3 4 4 3 4 4 5 5 4 4 6 6 5 5 5 5 4 3 3 1 1 1 2 3 3 3
5 4 4 4 5 5 5 4 3 3 3 3 3 2 1 2 2 3 4 4 4 4 4 5 5 5 5 7 7 6 4 5 5 4 3 2 2 2 1 1 2 3 3
5 4 4 5 6 6 6 5 4 4 4 3 4 3 2 3 3 4 4 4 4 5 5 6 6 6 6 7 7 6 4 5 5 4 3 3 3 2 2 2 2 3 3
5 4 4 4 4 5 5 5 5 4 4 3 4 4 4 4 4 3 3 4 4 5 6 6 6 5 6 6 7 7 4 4 4 3 3 3 5 5 4 4 3 4 3
4 4 3 3 3 4 5 5 5 5 4 4 4 4 4 5 4 3 4 4 4 5 6 6 6 5 5 5 7 8 8 6 4 4 3 3 5 6 6 5 6 5 3
3 3 3 3 3 3 4 4 4 5 5 5 5 5 5 4 4 3 4 4 4 4 5 5 5 5 4 4 6 8 8 8 5 4 4 5 6 6 6 8 8 6 4
3 3 4 4 4 4 4 4 4 5 5 6 6 5 5 5 4 4 4 4 4 4 5 5 6 5 5 4 3 3 5 6 5 5 5 5 6 6 7 6 6 5 5
3 3 3 4 5 4 4 4 4 4 6 6 6 6 5 5 4 4 4 5 5 5 6 6 6 6 6 6 6 5 5 5 6 4 3 3 3 5 5 5 5 5 5
3 3 4 4 5 6 6 5 5 5 6 5 5 5 5 5 4 5 6 8 9 11 11 11 10 8 9 10 9 9 9 9 8 5 5 6 6 7 7 6 6 6 6
Wind_Direction
160 148 148 145 146 140 130 118 119 114 107 89 64 66 57 4 49 61 54 22 19 20 357 350 357 6 5 337 329 339 336 324 320 332 324 322 123 148 148 116 62 145 137
148 147 148 152 155 143 132 124 123 120 109 103 97 105 78 356 68 53 52 24 33 20 353 358 358 359 342 342 340 346 343 324 326 318 331 348 358 349 134 136 152 96 118
145 147 158 153 148 140 131 129 131 122 117 126 102 77 69 346 33 61 80 40 46 26 354 352 348 335 347 351 327 330 345 320 322 352 73 80 305 333 342 99 132 139 133
141 144 153 152 151 141 135 143 139 132 132 137 124 125 132 274 42 59 122 233 176 147 20 351 342 336 352 347 326 9 337 321 319 323 318 224 174 156 344 345 19 113 131
137 142 147 151 152 145 144 148 140 134 134 138 139 180 125 343 37 36 14 293 204 81 97 354 328 322 337 348 335 341 333 333 328 324 334 332 324 244 169 255 310 356 52
138 138 138 140 139 133 137 144 139 131 133 156 170 176 153 136 1 306 300 302 270 235 9 353 332 328 343 346 340 335 319 325 328 328 323 317 325 320 313 227 229 244 338
125 124 129 132 135 135 139 144 142 146 157 181 196 181 163 192 220 245 243 272 281 251 355 349 354 333 344 338 331 321 316 299 286 274 293 325 302 281 280 245 261 265 231
111 115 121 129 138 142 146 153 157 164 168 187 215 228 156 176 199 231 259 265 268 229 190 336 7 333 341 337 342 333 323 322 317 309 301 295 297 316 236 181 178 326 316
113 117 117 125 138 150 157 165 163 170 177 190 203 211 181 153 218 271 281 291 304 315 6 330 0 339 343 339 355 339 328 341 336 331 322 295 270 278 285 175 153 159 209
115 117 120 125 134 144 154 157 161 172 185 193 202 186 195 179 206 266 278 290 302 314 313 316 313 304 298 317 1 319 308 329 302 278 311 319 309 314 283 232 235 184 181
107 106 110 118 125 131 143 150 167 180 190 203 205 191 182 180 216 244 255 265 265 273 268 264 269 274 286 283 257 266 287 280 280 274 249 262 271 271 266 240 239 219 166
99 104 101 96 100 114 133 148 171 184 191 205 211 196 174 183 215 252 260 264 258 250 260 268 272 272 272 283 295 263 268 260 281 294 307 292 281 246 252 241 239 227 194
90 95 98 98 101 109 122 141 161 184 181 177 195 204 210 220 224 257 274 278 266 253 248 244 260 279 282 275 276 269 267 260 262 276 290 294 313 267 230 209 222 255 227
84 84 89 99 101 97 113 122 139 152 151 153 177 207 226 237 256 262 262 276 285 279 265 263 259 270 289 293 289 289 284 281 282 275 291 317 7 322 298 224 224 228 231
77 77 81 82 92 79 61 99 141 158 169 168 183 231 234 212 248 282 281 280 293 296 287 275 266 256 264 300 330 321 312 306 302 287 230 178 148 122 97 72 281 256 227
71 62 61 67 73 79 63 41 27 187 175 170 194 220 223 228 241 275 289 286 283 284 284 273 265 258 256 252 258 294 310 309 302 291 258 203 175 173 183 175 143 156 207
63 49 40 36 35 39 51 61 314 291 179 148 171 196 209 229 230 257 270 270 270 270 277 284 276 252 229 220 227 245 266 280 283 282 277 272 222 175 194 216 224 225 234
64 47 32 30 21 22 20 17 29 34 25 19 24 252 246 251 245 251 267 264 264 262 257 272 279 272 248 223 222 237 250 265 268 268 261 248 241 227 213 219 213 206 220
61 48 29 28 22 18 8 2 17 29 26 10 355 348 315 277 260 256 262 264 268 269 259 257 257 261 259 229 221 219 241 255 259 256 255 250 233 247 231 234 232 198 209
56 43 29 29 23 11 6 3 4 11 7 353 336 332 308 276 257 254 261 263 263 266 268 266 255 250 254 238 225 216 233 250 255 246 226 211 213 226 215 223 252 228 221
49 39 33 30 17 5 0 354 358 358 350 333 320 317 305 285 267 253 254 263 265 272 270 272 268 258 254 237 222 213 227 247 264 258 238 216 206 214 229 228 229 237 237
49 32 22 15 11 7 357 353 351 346 343 329 314 303 293 293 294 273 262 262 262 270 270 271 276 271 262 240 229 220 225 242 253 263 257 232 217 217 227 232 235 239 240
48 28 7 352 359 5 354 344 340 340 334 323 313 307 302 299 298 289 277 267 263 264 267 268 270 272 268 244 229 224 231 239 246 256 250 244 238 235 234 230 232 230 221
35 16 360 348 344 347 344 338 337 332 323 314 308 307 308 304 303 298 286 278 267 264 269 272 273 272 263 248 236 238 243 243 249 259 264 253 238 236 235 235 232 222 214
19 3 344 334 331 334 331 326 325 325 316 311 312 311 308 301 297 292 286 283 275 265 265 268 272 275 273 262 241 238 243 238 240 241 248 244 239 232 230 222 216 214 211
359 348 339 335 331 333 334 332 329 320 312 311 313 312 310 304 295 291 293 279 274 275 270 263 266 272 268 276 271 257 249 241 234 231 238 238 233 228 227 223 219 214 213
Height
1507 1510 1512 1514 1516 1518 1519 1520 1520 1521 1521 1521 1522 1522 1522 1522 1522 1521 1520 1519 1518 1516 1515 1514 1514 1513 1512 1511 1511 1510 1510 1511 1511 1511 1511 1511 1511 1511 1512 1512 1513 1514 1515
1506 1508 1511 1513 1516 1517 1518 1519 1520 1520 1520 1521 1521 1521 1522 1522 1521 1520 1520 1519 1517 1516 1515 1514 1513 1512 1511 1511 1510 1510 1510 1510 1511 1511 1511 1511 1512 1511 1512 1512 1512 1513 1514
1505 1508 1511 1513 1515 1516 1518 1519 1519 1520 1520 1521 1521 1521 1521 1521 1521 1520 1519 1519 1517 1516 1515 1514 1513 1512 1512 1511 1510 1510 1510 1510 1510 1511 1511 1511 1511 1511 1512 1512 1512 1513 1513
1504 1507 1510 1512 1514 1516 1517 1518 1519 1520 1520 1520 1521 1521 1521 1521 1521 1520 1519 1519 1518 1516 1515 1514 1513 1512 1512 1511 1510 1510 1510 1510 1510 1510 1511 1511 1511 1511 1511 1512 1512 1513 1513
1503 1506 1509 1511 1513 1515 1516 1517 1519 1519 1520 1520 1520 1521 1521 1521 1521 1520 1519 1519 1518 1517 1515 1514 1513 1512 1512 1511 1510 1510 1509 1509 1509 1509 1510 1510 1511 1511 1511 1511 1512 1512 1512
1503 1505 1508 1510 1512 1514 1515 1517 1518 1519 1519 1520 1520 1521 1521 1520 1520 1520 1519 1518 1518 1517 1516 1515 1513 1512 1512 1511 1510 1510 1509 1509 1509 1509 1509 1510 1510 1510 1511 1511 1511 1511 1512
1503 1505 1507 1509 1511 1513 1514 1516 1517 1518 1519 1519 1520 1520 1520 1520 1520 1519 1519 1518 1518 1517 1516 1515 1513 1512 1512 1511 1510 1510 1509 1509 1509 1508 1509 1509 1509 1509 1510 1510 1510 1511 1511
1503 1505 1507 1509 1511 1512 1513 1515 1516 1517 1518 1518 1519 1520 1520 1519 1519 1519 1518 1518 1517 1517 1515 1514 1513 1512 1512 1511 1510 1509 1509 1509 1508 1508 1508 1508 1508 1509 1509 1510 1510 1510 1511
1504 1506 1508 1509 1510 1511 1513 1514 1515 1516 1517 1517 1518 1519 1519 1519 1518 1518 1518 1517 1517 1516 1515 1514 1513 1512 1512 1511 1510 1509 1508 1508 1508 1507 1507 1507 1508 1508 1508 1509 1509 1510 1510
1505 1507 1508 1509 1510 1511 1512 1513 1514 1515 1516 1517 1517 1518 1518 1518 1517 1517 1517 1516 1516 1515 1515 1514 1513 1512 1511 1511 1510 1509 1508 1508 1507 1507 1506 1506 1506 1506 1507 1507 1508 1509 1509
1506 1507 1508 1509 1510 1511 1512 1512 1513 1514 1515 1516 1516 1517 1517 1516 1516 1516 1516 1515 1515 1514 1514 1513 1512 1512 1511 1510 1510 1509 1508 1507 1507 1506 1506 1505 1505 1505 1506 1506 1507 1507 1507
1506 1508 1509 1509 1510 1511 1511 1512 1512 1513 1514 1515 1515 1516 1515 1515 1515 1515 1514 1514 1514 1513 1513 1512 1512 1511 1511 1510 1509 1508 1508 1507 1506 1506 1505 1505 1504 1504 1504 1504 1505 1505 1506
1507 1508 1509 1510 1510 1511 1511 1512 1512 1512 1513 1513 1513 1514 1514 1514 1513 1513 1513 1512 1512 1512 1511 1511 1510 1510 1509 1509 1508 1507 1507 1506 1505 1505 1504 1504 1503 1503 1503 1503 1503 1503 1504
1508 1508 1509 1510 1511 1511 1511 1511 1511 1512 1512 1512 1512 1512 1512 1512 1512 1511 1511 1510 1510 1510 1510 1509 1509 1508 1508 1507 1507 1506 1505 1505 1504 1504 1503 1502 1502 1501 1501 1501 1501 1501 1502
1508 1509 1510 1510 1510 1511 1511 1511 1511 1511 1511 1511 1511 1510 1511 1510 1510 1509 1509 1509 1508 1508 1507 1507 1507 1506 1506 1505 1505 1504 1504 1503 1503 1502 1501 1501 1500 1500 1500 1499 1499 1499 1500
1509 1510 1510 1510 1510 1510 1510 1510 1510 1510 1509 1509 1509 1509 1509 1509 1508 1507 1507 1507 1506 1505 1505 1505 1505 1504 1504 1503 1503 1502 1502 1501 1501 1500 1500 1499 1498 1498 1497 1497 1497 1497 1498
1510 1510 1510 1510 1510 1510 1509 1509 1509 1509 1508 1508 1507 1507 1507 1506 1506 1505 1505 1504 1504 1503 1503 1502 1502 1501 1501 1501 1500 1500 1499 1499 1498 1498 1497 1497 1496 1496 1495 1495 1495 1495 1495
1510 1510 1510 1510 1510 1509 1509 1508 1508 1507 1507 1506 1506 1505 1505 1504 1503 1503 1502 1501 1501 1500 1500 1499 1499 1498 1498 1498 1497 1497 1496 1495 1495 1495 1495 1494 1494 1493 1493 1493 1492 1492 1492
1509 1509 1510 1509 1509 1508 1508 1507 1507 1506 1505 1505 1504 1503 1502 1502 1501 1500 1499 1498 1498 1497 1496 1496 1495 1495 1494 1494 1494 1493 1492 1492 1491 1491 1491 1491 1490 1490 1490 1490 1489 1489 1489
1509 1509 1509 1509 1508 1507 1507 1506 1505 1505 1503 1503 1502 1501 1500 1499 1498 1497 1496 1495 1495 1494 1493 1492 1492 1491 1490 1490 1490 1489 1489 1488 1487 1487 1487 1487 1487 1487 1487 1487 1486 1486 1486
1508 1508 1508 1507 1507 1506 1505 1505 1504 1503 1502 1500 1499 1498 1497 1496 1495 1494 1493 1492 1491 1490 1489 1489 1488 1487 1487 1486 1486 1485 1485 1484 1483 1483 1483 1483 1483 1483 1483 1483 1483 1482 1483
1507 1507 1507 1506 1506 1505 1504 1503 1502 1501 1499 1498 1497 1495 1494 1493 1492 1491 1489 1488 1487 1486 1485 1484 1483 1483 1482 1482 1481 1480 1480 1480 1479 1479 1478 1478 1478 1478 1478 1478 1478 1479 1479
1506 1505 1505 1505 1504 1503 1502 1501 1500 1498 1496 1495 1494 1493 1491 1490 1489 1487 1486 1484 1483 1482 1481 1480 1479 1478 1477 1476 1476 1475 1475 1474 1474 1474 1473 1473 1473 1472 1472 1473 1473 1474 1474
1504 1504 1503 1503 1502 1501 1500 1499 1497 1496 1494 1492 1491 1489 1488 1486 1485 1484 1482 1481 1480 1478 1477 1476 1474 1473 1472 1471 1470 1470 1469 1469 1468 1468 1467 1467 1467 1467 1467 1467 1468 1468 1469
1503 1502 1501 1501 1500 1499 1498 1496 1495 1493 1491 1490 1488 1487 1485 1483 1481 1480 1479 1477 1475 1475 1473 1471 1470 1469 1467 1466 1465 1464 1463 1463 1463 1462 1461 1461 1461 1461 1461 1461 1461 1462 1463
1501 1500 1499 1499 1498 1496 1495 1494 1492 1490 1488 1487 1485 1483 1481 1479 1477 1475 1473 1472 1471 1469 1468 1466 1465 1463 1462 1461 1459 1458 1457 1456 1456 1455 1454 1454 1454 1454 1454 1455 1455 1456 1457